Regional Weather Roundup
Issued by NWS

Home | Current Version | Previous Version | Graphics & Text | Print | Product List | Glossary On
Versions: 1 2 3 4 5 6 7 8 9 10 11 12 13 14 15 16 17 18 19 20 21 22 23 24 25 26 27 28 29 30 31 32 33 34 35 36 37 38 39 40 41 42 43 44 45 46 47 48 49 50
000
ASUS43 KLOT 280321
RWRIL

ILLINOIS REGIONAL WEATHER ROUNDUP
NATIONAL WEATHER SERVICE CHICAGO/ROMEOVILLE IL
1000 PM CDT FRI MAR 27 2015

NOTE: "FAIR" INDICATES FEW OR NO CLOUDS BELOW 12,000 FEET WITH NO
SIGNIFICANT WEATHER AND/OR OBSTRUCTIONS TO VISIBILITY.

* THESE STATIONS ARE NOT UNDER NWS QUALITY CONTROL. THEY ALSO MAY NOT
  REPORT WEATHER SUCH AS PRECIPITATION OR FOG.

ILZ001-002-007-009-015-016-024-280400-
NORTHWEST ILLINOIS

CITY           SKY/WX    TMP DP  RH WIND       PRES   REMARKS
MOLINE         CLEAR     25  17  72 CALM      30.20R
STERLING*      CLEAR     23  16  74 CALM      30.21R
SAVANNA*       CLEAR     25  16  69 CALM      30.21R
$$

ILZ003-004-008-010-011-017-018-280400-
NORTH CENTRAL ILLINOIS

CITY           SKY/WX    TMP DP  RH WIND       PRES   REMARKS
ROCKFORD       CLEAR     26  11  52 E8        30.22R WCI  18
FREEPORT*      CLEAR     19  11  70 CALM      30.21R
ROCHELLE*      CLEAR     26  15  65 NE8       30.21R WCI  17
DE KALB*       CLEAR     20  14  78 E7        30.21R WCI  11
PERU*          CLEAR     28  15  57 N3        30.21R
$$

ILZ005-006-012>014-019>023-280400-
NORTHEAST ILLINOIS

CITY           SKY/WX    TMP DP  RH WIND       PRES   REMARKS
CHICAGO-OHARE  FAIR      24  12  60 VRB6      30.20S WCI  17
CHICAGO-MIDWAY PTCLDY    27  11  51 N10       30.21R WCI  17
AURORA         CLEAR     23  13  65 E8        30.22R WCI  14
LANSING*       CLEAR     25   8  49 NE8       30.21R WCI  16
JOLIET*        CLEAR     25  15  66 NE6       30.22R WCI  18
WAUKEGAN       CLEAR     20  13  74 NW3       30.21R
DUPAGE AIRPORT CLEAR     20  12  71 NE6       30.20R WCI  12
KANKAKEE*      CLEAR     24  16  73 N6        30.21R WCI  16
WHEELING       CLEAR     22  13  68 N6        30.22S WCI  14
MORRIS*        CLEAR     24  16  71 NE6       30.21R WCI  17
ROMEOVILLE*    CLEAR     23  14  68 NE7       30.21S WCI  15
NORTHERLY ISL    N/A     26  15  63 N10         N/A  WCI  16
$$

LMZ740>746-280400-
SOUTHERN LAKE MICHIGAN

STATION/POSITION SKY/WX   TEMP    WIND        PRES    VSBY  WAVE
                          AIR SEA DIR/SP/G                  HT/PER
                          (F)     (DEG/KT/KT) (MB)    (MI)  (FT/S)
HARRISON CRIB              26     360/ 18/ 22   N/A
BURNHAM HARBOR             26     360/ 14/ 19   N/A
CALUMET HARBOR             26     360/ 12/ 19 1021.5R
BURNS HARBOR               26      20/ 20/ 25 1022.4S
MICHIGAN CITY              24     350/ 23/ 26   N/A
$$

ILZ025>027-034>036-040-047-049-050-058-095>099-280400-
WEST-CENTRAL ILLINOIS

CITY           SKY/WX    TMP DP  RH WIND       PRES   REMARKS
QUINCY         MOCLDY    31  13  47 E5        30.19R WCI  26
GALESBURG*     CLEAR     26  15  64 CALM      30.19S
MACOMB*        CLEAR     27  17  66 CALM      30.22R
JACKSONVILLE*  CLEAR     31  19  61 CALM      30.20R
PITTSFIELD*    CLEAR     32  16  51 CALM      30.21R
$$

ILZ028>032-037-038-041>044-048-051>054-059>061-280400-
CENTRAL ILLINOIS

CITY           SKY/WX    TMP DP  RH WIND       PRES   REMARKS
PONTIAC        CLEAR     24  19  83 E6        30.21R WCI  17
BLOOMINGTON    CLEAR     27  15  60 N7        30.19R WCI  20
DECATUR        CLEAR     27  15  61 N7        30.19R WCI  19
PEORIA         FAIR      29  12  49 CALM      30.21R
LACON*         CLEAR     25  17  70 CALM      30.21R
LINCOLN*       CLEAR     29  19  64 CALM      30.22R
SPRINGFIELD    CLEAR     29  15  56 NE6       30.20R WCI  23
TAYLORVILLE    FAIR      30  21  69 N5        30.20R WCI  25
$$

ILZ033-039-045-046-055>057-062-063-280400-
EAST-CENTRAL ILLINOIS

CITY           SKY/WX    TMP DP  RH WIND       PRES   REMARKS
CHAMPAIGN      CLEAR     26  17  68 NE8       30.18R WCI  18
DANVILLE*      CLEAR     24  16  70 NE10      30.16R WCI  14
RANTOUL*       CLEAR     27  19  70 NE6       30.19R WCI  21
MATTOON        FAIR      27  18  69 N7        30.17R WCI  19
PARIS*         CLEAR     27  18  70 NE5       30.19R WCI  22
$$

ILZ079-100>102-280400-
SOUTHWEST ILLINOIS

CITY           SKY/WX    TMP DP  RH WIND       PRES   REMARKS
ALTON          CLEAR     32  16  51 NE6       30.20R WCI  26
BELLEVILLE     CLEAR     31  22  67 NE6       30.19R WCI  26
CAHOKIA*       CLEAR     32  22  66 CALM      30.19R
SPARTA*        CLEAR     32  21  64 CALM      30.19S
$$

ILZ064>066-069>071-074>076-080>082-084>086-088>090-092>094-280400-
SOUTH-CENTRAL ILLINOIS

CITY           SKY/WX    TMP DP  RH WIND       PRES   REMARKS
CARBONDALE     CLEAR     30  23  75 CALM      30.19R
CAIRO*         CLEAR     33  25  71 CALM      30.19S
EFFINGHAM*     FAIR      31  15  53 N3        30.20S
MARION         MOCLDY    32  25  74 CALM      30.19R
MT. VERNON     CLEAR     30  18  59 CALM      30.19R
CENTRALIA*     CLEAR     32  19  57 N3        30.19R
SALEM*         CLEAR     33  21  63 N5        30.19R WCI  28
METROPOLIS*    CLEAR     32  25  76 NW3       30.18S
$$

ILZ067-068-072-073-078-083-087-091-280400-
SOUTHEAST ILLINOIS

CITY           SKY/WX    TMP DP  RH WIND       PRES   REMARKS
LAWRENCEVILLE  CLEAR     29  20  69 N6        30.18R WCI  23
FLORA*         CLEAR     31  20  64 N6        30.19S WCI  25
FAIRFIELD*     CLEAR     32  21  65 N7        30.18R WCI  25
HARRISBURG*    CLEAR     32  21  64 N5        30.19S WCI  27
ROBINSON*      CLEAR     28  19  69 NE7       30.19R WCI  21
CARMI*         CLEAR     30  23  74 N3        30.18R
$$

ABBREVIATIONS USED IN REMARKS
   TC - TEMPERATURE IN CELSIUS
  WCI - WIND CHILL INDEX
   HX - HEAT INDEX
  VSB - VISIBILITY
$$



USA.gov is the U.S. government's official web portal to all federal, state and local government web resources and services.